Regional Weather Roundup
Issued by NWS

Home | Current Version | Previous Version | Graphics & Text | Print | Product List | Glossary On
Versions: 1 2 3 4 5 6 7 8 9 10 11 12 13 14 15 16 17 18 19 20 21 22 23 24 25 26 27 28 29 30 31 32 33 34 35 36 37 38 39 40 41 42 43 44 45 46 47 48 49 50
000
ASUS43 KMKX 230121
RWRWI

WISCONSIN REGIONAL WEATHER ROUNDUP
NATIONAL WEATHER SERVICE MILWAUKEE/SULLIVAN WI
800 PM CDT WED OCT 22 2014

NOTE: "FAIR" INDICATES FEW OR NO CLOUDS BELOW 12,000 FEET WITH NO
SIGNIFICANT WEATHER AND/OR OBSTRUCTIONS TO VISIBILITY.

WIZ001-002-006>008-014>016-023>028-230200-
NORTHWEST WISCONSIN

CITY           SKY/WX    TMP DP  RH WIND       PRES   REMARKS
SUPERIOR ARPT  CLOUDY    54  37  52 S7        30.06S
ASHLAND        PTCLDY    53  32  44 S7        30.09S
HAYWARD        MOCLDY    53  33  46 S12       30.09S
SIREN          MOCLDY    55  33  43 S14G20    30.06S
CUMBERLAND     CLOUDY    52  34  50 SE8       30.09S
RICE LAKE      CLOUDY    55  35  47 SE12G20   30.12S
CHETEK         LGT RAIN  54  38  55 SE12      30.12S
LADYSMITH      MOCLDY    52  34  51 SE9       30.15S
EAU CLAIRE     CLOUDY    56  36  47 S9        30.13S
MENOMONIE      LGT RAIN  52  40  64 SE8G18    30.12S
NEW RICHMOND   MOCLDY    54  37  53 S12G17    30.08S
OSCEOLA        MOCLDY    55  39  54 SE9       30.09S
$$

WIZ003>005-009-010-017-018-230200-
NORTH CENTRAL WISCONSIN

CITY           SKY/WX    TMP DP  RH WIND       PRES   REMARKS
MANITOWISH WTR CLEAR     46  31  55 S10       30.15S
ARBOR VITAE    CLEAR     46  31  58 SE5       30.16F
WOODRUFF       CLEAR     46  31  58 SE5       30.16F
RHINELANDER    CLEAR     42  31  64 SE7       30.19S
EAGLE RIVER    CLEAR     42  28  57 CALM      30.18S
LAND O LAKES   CLEAR     44  29  57 S3        30.18F
PHILLIPS       MOCLDY    47  32  55 S8        30.15S
TOMAHAWK       CLEAR     43  32  64 CALM      30.18S
MEDFORD        CLEAR     45  35  68 SE6       30.17S
MERRILL        CLEAR     44  33  65 S6        30.19S
$$

WIZ029-030-035-036-043>047-230200-
CENTRAL WISCONSIN

CITY           SKY/WX    TMP DP  RH WIND       PRES   REMARKS
WAUSAU         CLEAR     46  34  62 SE10      30.19S
MOSINEE        CLEAR     45  36  70 SE7       30.21S
MARSHFIELD     CLEAR     45  35  68 SE6       30.18S
STEVENS POINT  CLEAR     44  33  65 SE5       30.21S
WAUPACA        CLEAR     45  38  77 SE5       30.24R
WAUTOMA        CLOUDY    40  35  82 CALM      30.23S
WISC RAPIDS    CLEAR     45  35  68 SE6       30.22R
CAMP DOUGLAS   PTCLDY    45  37  76 SE6       30.19S
$$

WIZ011>013-019>022-031-037>040-048>050-230200-
NORTHEAST WISCONSIN

CITY           SKY/WX    TMP DP  RH WIND       PRES   REMARKS
ANTIGO         CLEAR     40  35  80 SE10      30.21S WCI  34
SHAWANO        CLEAR     43  38  83 SE5       30.25S
OCONTO         PTCLDY    41  40  97 S6        30.26F
STURGEON BAY   CLEAR     39  34  81 S6        30.27S WCI  35
GREEN BAY      CLEAR     41  37  86 SE7       30.26F
MANITOWOC      FAIR      43  39  86 S6        30.27F
APPLETON       PTCLDY    43  37  81 SE7       30.25S
CLINTONVILLE   CLEAR     43  36  75 SE5       30.24R
OSHKOSH        CLEAR     45  39  79 SE8       30.24S
$$

WIZ032>034-041-042-053>061-230200-
SOUTHWEST WISCONSIN

CITY           SKY/WX    TMP DP  RH WIND       PRES   REMARKS
LA CROSSE      MOCLDY    54  38  54 SE8       30.17R
SPARTA         CLEAR     43  34  69 CALM      30.19S
VIROQUA        CLEAR     49  36  61 SE6       30.18F
BOSCOBEL       CLEAR     43  36  76 CALM      30.21R
PRAIRIE DU CHI PTCLDY    50  36  59 E6        30.19S
PLATTEVILLE    CLEAR     49  35  58 SE7       30.22S
$$

WIZ056-057-062-063-064-067-068-230200-
SOUTH CENTRAL WISCONSIN

CITY           SKY/WX    TMP DP  RH WIND       PRES   REMARKS
REEDSBURG      CLEAR     48  36  63 SE3       30.21S
BARABOO/DELLS  CLEAR     43  36  74 SE5       30.22S
LONE ROCK      CLEAR     47  34  60 E5        30.22R
MINERAL POINT  CLEAR     48  34  57 SE3       30.22R
MADISON        PTCLDY    44  35  70 CALM      30.23S
MIDDLETON      CLEAR     43  37  78 CALM      30.24R
WATERTOWN      CLEAR     43  39  88 SE6       30.24S
MONROE         CLEAR     46  34  61 S8        30.23R
JANESVILLE     CLEAR     45  36  70 SE12      30.23S
$$

WIZ051-052-058>065-066-070>072-230200-
SOUTHEAST WISCONSIN

CITY           SKY/WX    TMP DP  RH WIND       PRES   REMARKS
MILWAUKEE      PTCLDY    42  36  79 SE7       30.27S
WAUKESHA       CLEAR     43  37  81 SE7       30.27S
MILWAUKEE/TIMM CLEAR     45  37  76 CALM      30.28S
RACINE         CLEAR     44  37  76 SE6       30.29S
BURLINGTON     CLEAR     40  37  87 CALM      30.27S
KENOSHA        CLEAR     40  36  86 SE5       30.27S
FOND DU LAC    CLEAR     43  38  82 SE9       30.25S
SHEBOYGAN      CLEAR     39  35  86 CALM      30.27F
WEST BEND      CLEAR     39  36  87 CALM      30.27R
JUNEAU         CLEAR     43  39  83 E10       30.25S
$$

LSZ147-162-230200-
LAKE SUPERIOR

STATION/POSITION TIME  TEMP    WIND        PRES    WAVE
                       AIR SEA DIR/SP/G            HT/PER
                 (UTC) (F)     (DEG/KT/KT) (MB)    (FT/S)
W MID LAKE BUOY  0050   51 46  150/ 12/ 14 1019.6F   1/ 3
DEVILS ISLAND    0100   56     180/ 10/ 13 1018.8F
PORT WING        0000   58     170/  6/ 12 1018.3S
SAXON HARBOR     0000   58     170/  4/ 11 1018.6F
$$

LMZ867-665-643>646-230200-
LAKE MICHIGAN

STATION/POSITION TIME  TEMP    WIND        PRES    WAVE
                       AIR SEA DIR/SP/G            HT/PER
                 (UTC) (F)     (DEG/KT/KT) (MB)    (FT/S)
CHAMBERS ISLAND  0000   42     120/  5/  8 1025.1F
N MID LAKE BUOY  0050   45 51  150/  8/ 10 1025.9F   0
NORTHPORT PIER   0000   41     170/  4/  7 1025.4S
SISTER BAY       0013          140/  5/  6   N/A
KEWAUNEE LAKESHO 0100   46     160/  9/ 12 1024.0F
SHEBOYGAN LAKESH 0100   47 50  150/ 10/ 13 1025.5F
PORT WASHINGTON  0000   49     150/  9/ 11 1025.7S
ATWATER BUOY     0100   48     140/ 10/ 12 1025.8F
MILWAUKEE LAKESH 0100   47     130/ 11/ 13   N/A
S MID LAKE BUOY  0050   48 54  100/  6/  8 1025.8F   1
KENOSHA   LAKESH 0100   48     130/ 10/ 11 1024.7F
$$

TC  - TEMPERATURE IN CELSIUS
VSB - VISIBILITY IN STATUTE MILES
WCI - WIND CHILL INDEX
HX  - HEAT INDEX




USA.gov is the U.S. government's official web portal to all federal, state and local government web resources and services.